Location: Unspecified
(51.0000°N, 12.0000°E)
Time: 05:51:37
(UTC+01:00)

ISS - Pass Details

Date: 27 November 2020
Orbit: 418 x 419 km, 51.6° (Epoch: 18 January)

Event Time Altitude Azimuth Distance (km) Brightness Sun altitude
Rises 18:49:07 0° 270° (W) 2,367 1.5 -24.0°
Reaches altitude 10° 18:51:13 10° 272° (W) 1,503 0.1 -24.4°
Enters shadow 18:53:20 36° 278° (W) 689 -2.2 -24.7°
